This is the latest recevied weather packets stored in our database for station/object XQ6AK-15. If no packets are shown the sender has not sent any weather packets the latest 10 day(s).
| Time | Temp. | Humidity | Pressure | Rain* | Wind** | Luminosity | Snow |
|---|---|---|---|---|---|---|---|
| 1788133671 | 6.11° C | 99% | 1013.5 hPa | 0 mm | - | 0 W/m² | - |
| 1788133367 | 6.11° C | 99% | 1013.4 hPa | 0 mm | - | 0 W/m² | - |
| 1788133062 | 6.67° C | 99% | 1013.4 hPa | 0 mm | - | 0 W/m² | - |
| 1788132758 | 6.67° C | 99% | 1013.3 hPa | 0 mm | - | 0 W/m² | - |
| 1788132453 | 6.67° C | 99% | 1013.3 hPa | 0 mm | - | 0 W/m² | - |
| 1788132149 | 6.67° C | 99% | 1013.4 hPa | 0 mm | - | 0 W/m² | - |
| 1788131845 | 6.67° C | 99% | 1013.4 hPa | 0 mm | - | 0 W/m² | - |
| 1788131544 | 6.67° C | 99% | 1013.3 hPa | 0 mm | - | 0 W/m² | - |
| 1788131239 | 6.67° C | 99% | 1013 hPa | 0 mm | - | 0 W/m² | - |
| 1788130934 | 6.67° C | 99% | 1013 hPa | 0 mm | - | 0 W/m² | - |
| 1788130629 | 6.67° C | 99% | 1013 hPa | 0 mm | - | 0 W/m² | - |
| 1788130324 | 6.67° C | 99% | 1013 hPa | 0 mm | - | 0 W/m² | - |
| 1788130023 | 6.67° C | 99% | 1012.9 hPa | 0 mm | - | 0 W/m² | - |
| 1788129719 | 6.67° C | 99% | 1012.7 hPa | 0 mm | - | 0 W/m² | - |
| 1788129415 | 6.67° C | 99% | 1012.8 hPa | 0 mm | - | 0 W/m² | - |
| 1788129110 | 7.22° C | 99% | 1012.6 hPa | 0 mm | - | 0 W/m² | - |
| 1788128805 | 7.22° C | 99% | 1012.6 hPa | 0 mm | - | 1 W/m² | - |
| 1788128500 | 7.22° C | 99% | 1012.4 hPa | 0 mm | - | 2 W/m² | - |
| 1788128196 | 7.78° C | 99% | 1012.3 hPa | 0 mm | - | 5 W/m² | - |
| 1788127891 | 7.78° C | 99% | 1012.4 hPa | 0 mm | - | 9 W/m² | - |
| 1788127587 | 7.78° C | 99% | 1012.2 hPa | 0 mm | - | 16 W/m² | - |
| 1788127286 | 7.78° C | 99% | 1012 hPa | 0 mm | - | 19 W/m² | - |
| 1788126985 | 7.78° C | 99% | 1012 hPa | 0 mm | - | 24 W/m² | - |
| 1788126680 | 7.78° C | 99% | 1011.9 hPa | 0 mm | - | 28 W/m² | - |
| 1788126375 | 7.78° C | 99% | 1011.8 hPa | 0 mm | - | 23 W/m² | - |
* Rain latest hour (hover to see other rain measurements)
** Current wind speed in m/s (hover to see current wind gust speed)